Weather History for KEGV - October, 2011

Change the Weather History Date:

Sunday, October 9, 2011

  Actual Average (KRHI) Record (KRHI)
Temperature  
Mean Temperature 68 °F 46 °F  
Max Temperature 79 °F 57 °F 81 °F (2011)
Min Temperature 57 °F 36 °F 19 °F (1929)
Degree Days  
Heating Degree Days 0 19  
Month to date heating degree days 159  
Since 1 July heating degree days 591  
Cooling Degree Days 3 0  
Month to date cooling degree days 0  
Year to date cooling degree days 259  
Growing Degree Days 18 (Base 50)    
Moisture  
Dew Point 48 °F    
Average Humidity 49    
Maximum Humidity 67    
Minimum Humidity 28    
Precipitation  
Precipitation 0.00 in 0.11 in 1.22 in (1992)
Month to date precipitation 1.05  
Year to date precipitation 26.13  
Snow  
Snow 0.00 in - T in (2012)
Month to date snowfall  
Since 1 July snowfall  
Since 1 September snowfall  
Snow Depth -    
Sea Level Pressure  
Sea Level Pressure 30.25 in    
Wind  
Wind Speed 6 mph (SW)    
Max Wind Speed 9 mph    
Max Gust Speed -    
Visibility 10 miles    
Events      
T = Trace of Precipitation, MM = Missing Value Source: NWS Daily Summary

Daily Weather History Graph

Daily Weather History Graph

Search for Another Location

Airport or City:

Trip Planner

Search our weather history database for the weather conditions in past years. The results will help you decide how hot, cold, wet, or windy it might be!

Date:

Astronomy

Oct. 09, 2011 Rise Set
Actual Time 7:05 AM CDT 6:22 PM CDT
Civil Twilight 6:35 AM CDT 6:52 PM CDT
Nautical Twilight 6:01 AM CDT 7:26 PM CDT
Astronomical Twilight 5:26 AM CDT 8:01 PM CDT
Moon 5:02 PM CDT (10/9) 4:45 AM CDT (10/9)
Length of Visible Light 12h 16m
Length of Day
11h 16m
Waxing Gibbous, 95% of the Moon is Illuminated
Oct 9
Waxing Gibbous
Oct 11
Full
Oct 19
Last Quarter
Oct 26
New
Nov 2
First Quarter

Hourly Weather History & Observations

Time (CDT) Temp. Dew Point Humidity Pressure Visibility Wind Dir Wind Speed Gust Speed Precip Events Conditions
12:15 AM 64.8 °F 50.2 °F 59% 30.20 in 10.0 mi SSW 3.5 mph - N/A   Clear
12:35 AM 65.7 °F 50.0 °F 57% 30.21 in 10.0 mi SW 5.8 mph - N/A   Clear
12:55 AM 66.2 °F 50.0 °F 56% 30.21 in 10.0 mi SW 5.8 mph - N/A   Clear
1:15 AM 66.6 °F 50.0 °F 55% 30.21 in 10.0 mi SW 6.9 mph - N/A   Clear
1:35 AM 66.2 °F 49.8 °F 55% 30.22 in 10.0 mi SW 8.1 mph - N/A   Clear
1:55 AM 66.2 °F 49.5 °F 55% 30.22 in 10.0 mi SW 9.2 mph - N/A   Scattered Clouds
2:15 AM 66.2 °F 49.3 °F 54% 30.22 in 10.0 mi SW 8.1 mph - N/A   Mostly Cloudy
2:35 AM 66.2 °F 49.3 °F 54% 30.23 in 10.0 mi SW 6.9 mph - N/A   Mostly Cloudy
2:55 AM 65.8 °F 49.3 °F 55% 30.23 in 10.0 mi SW 8.1 mph - N/A   Overcast
3:15 AM 65.3 °F 49.3 °F 56% 30.23 in 10.0 mi SW 8.1 mph - N/A   Mostly Cloudy
3:35 AM 64.8 °F 49.3 °F 57% 30.23 in 10.0 mi SW 5.8 mph - N/A   Scattered Clouds
3:55 AM 63.9 °F 49.1 °F 59% 30.23 in 10.0 mi SW 5.8 mph - N/A   Clear
4:15 AM 63.7 °F 49.1 °F 59% 30.23 in 10.0 mi SW 6.9 mph - N/A   Clear
4:35 AM 63.3 °F 49.1 °F 60% 30.24 in 10.0 mi SW 6.9 mph - N/A   Scattered Clouds
4:55 AM 63.3 °F 48.9 °F 59% 30.24 in 10.0 mi SW 6.9 mph - N/A   Mostly Cloudy
5:15 AM 63.0 °F 49.1 °F 61% 30.25 in 10.0 mi SW 6.9 mph - N/A   Overcast
5:35 AM 62.8 °F 49.1 °F 61% 30.25 in 10.0 mi SW 4.6 mph - N/A   Mostly Cloudy
5:55 AM 62.6 °F 48.9 °F 61% 30.25 in 10.0 mi SW 5.8 mph - N/A   Overcast
6:15 AM 62.4 °F 48.9 °F 61% 30.26 in 10.0 mi SW 4.6 mph - N/A   Overcast
6:35 AM 61.5 °F 48.7 °F 63% 30.26 in 10.0 mi SSW 4.6 mph - N/A   Scattered Clouds
6:55 AM 60.6 °F 48.4 °F 64% 30.27 in 10.0 mi SW 4.6 mph - N/A   Clear
7:15 AM 59.5 °F 48.4 °F 67% 30.27 in 10.0 mi SSW 3.5 mph - N/A   Clear
8:15 AM 60.4 °F 48.6 °F 65% 30.28 in 10.0 mi SW 5.8 mph - N/A   Scattered Clouds
8:35 AM 61.7 °F 48.9 °F 63% 30.29 in 10.0 mi SW 6.9 mph - N/A   Clear
8:55 AM 63.1 °F 49.1 °F 60% 30.29 in 10.0 mi SW 8.1 mph - N/A   Scattered Clouds
9:15 AM 64.2 °F 49.1 °F 58% 30.29 in 10.0 mi SW 8.1 mph - N/A   Scattered Clouds
9:35 AM 65.3 °F 49.6 °F 57% 30.29 in 10.0 mi SW 5.8 mph - N/A   Clear
9:55 AM 66.9 °F 49.5 °F 53% 30.30 in 10.0 mi SW 5.8 mph - N/A   Scattered Clouds
10:15 AM 68.2 °F 49.5 °F 51% 30.29 in 10.0 mi SW 8.1 mph - N/A   Clear
10:35 AM 69.6 °F 49.5 °F 49% 30.29 in 10.0 mi SW 6.9 mph - N/A   Clear
10:55 AM 71.1 °F 49.6 °F 47% 30.29 in 10.0 mi SW 6.9 mph - N/A   Clear
11:15 AM 72.3 °F 49.5 °F 44% 30.29 in 10.0 mi SW 6.9 mph - N/A   Clear
11:35 AM 73.2 °F 49.8 °F 44% 30.28 in 5.0 mi WSW 3.5 mph - N/A   Haze
11:55 AM 74.3 °F 49.8 °F 42% 30.28 in 10.0 mi SSW 4.6 mph - N/A   Clear
12:15 PM 75.6 °F 49.8 °F 40% 30.28 in 10.0 mi SW 5.8 mph - N/A   Clear
12:35 PM 76.8 °F 48.9 °F 37% 30.27 in 10.0 mi SSW 5.8 mph - N/A   Clear
12:55 PM 77.4 °F 48.4 °F 36% 30.27 in 10.0 mi SW 9.2 mph - N/A   Clear
1:15 PM 77.5 °F 47.7 °F 35% 30.26 in 10.0 mi West 3.5 mph - N/A   Clear
1:35 PM 77.7 °F 47.5 °F 34% 30.25 in 10.0 mi WSW 4.6 mph - N/A   Clear
1:55 PM 78.1 °F 47.1 °F 33% 30.25 in 10.0 mi South 4.6 mph - N/A   Clear
2:15 PM 78.3 °F 44.8 °F 30% 30.25 in 10.0 mi South 8.1 mph - N/A   Clear
2:35 PM 78.6 °F 43.9 °F 29% 30.24 in 10.0 mi Calm Calm - N/A   Clear
2:55 PM 79.0 °F 45.1 °F 30% 30.23 in 10.0 mi WSW 8.1 mph - N/A   Clear
3:15 PM 78.8 °F 45.3 °F 31% 30.23 in 10.0 mi SSW 8.1 mph - N/A   Clear
3:35 PM 78.6 °F 44.4 °F 30% 30.22 in 10.0 mi SW 4.6 mph - N/A   Clear
3:55 PM 78.6 °F 43.7 °F 29% 30.22 in 10.0 mi South 4.6 mph - N/A   Clear
4:15 PM 78.4 °F 42.8 °F 28% 30.22 in 10.0 mi South 4.6 mph - N/A   Clear
4:35 PM 78.1 °F 42.1 °F 28% 30.22 in 10.0 mi South 8.1 mph - N/A   Clear
4:55 PM 77.4 °F 41.9 °F 28% 30.22 in 10.0 mi South 5.8 mph - N/A   Clear
5:15 PM 77.0 °F 41.5 °F 28% 30.22 in 10.0 mi South 3.5 mph - N/A   Clear
5:35 PM 76.5 °F 41.0 °F 28% 30.22 in 10.0 mi SSW 3.5 mph - N/A   Clear
5:55 PM 75.2 °F 40.3 °F 28% 30.22 in 10.0 mi SSW 3.5 mph - N/A   Clear
6:35 PM 69.1 °F 43.0 °F 39% 30.23 in 10.0 mi Calm Calm - N/A   Clear
6:55 PM 62.6 °F 47.8 °F 58% 30.23 in 10.0 mi Calm Calm - N/A   Clear
7:55 PM 59.7 °F 45.9 °F 60% 30.24 in 10.0 mi South 4.6 mph - N/A   Clear
8:15 PM 57.9 °F 45.7 °F 64% 30.24 in 10.0 mi Calm Calm - N/A   Clear
8:35 PM 58.1 °F 45.9 °F 64% 30.24 in 10.0 mi Calm Calm - N/A   Clear
8:55 PM 59.9 °F 45.5 °F 59% 30.25 in 10.0 mi Calm Calm - N/A   Clear
9:35 PM 60.8 °F 46.9 °F 60% 30.25 in 10.0 mi Calm Calm - N/A   Clear
9:55 PM 55.8 °F 46.4 °F 71% 30.25 in 10.0 mi Calm Calm - N/A   Clear
10:15 PM 55.0 °F 46.8 °F 74% 30.25 in 10.0 mi Calm Calm - N/A   Clear
10:35 PM 52.2 °F 46.2 °F 80% 30.25 in 10.0 mi Calm Calm - N/A   Clear
10:55 PM 50.5 °F 45.3 °F 82% 30.25 in 10.0 mi Calm Calm - N/A   Clear
11:15 PM 49.6 °F 47.3 °F 92% 30.26 in 10.0 mi Calm Calm - N/A   Clear
11:35 PM 49.6 °F 48.7 °F 97% 30.25 in 10.0 mi Calm Calm - N/A   Clear
11:55 PM 50.0 °F 49.5 °F 98% 30.25 in 10.0 mi Calm Calm - N/A   Clear